Time,TemperatureF,DewpointF,PressureIn,WindDirection,WindDirectionDegrees,WindSpeedMPH,WindSpeedGustMPH,Humidity,HourlyPrecipIn,Conditions,Clouds,dailyrainin,SoftwareType,DateUTC
2013-03-01 00:06:00,30.3,29.0,30.03,WSW,242,0.0,6.0,94,0.00,,,0.00,weatherlink.com 1.10,2013-03-01 05:06:00,
2013-03-01 00:21:00,30.4,29.0,30.02,SSE,155,2.0,2.0,94,0.00,,,0.00,weatherlink.com 1.10,2013-03-01 05:21:00,
2013-03-01 00:36:00,30.4,29.0,30.02,SSW,205,7.0,10.0,94,0.00,,,0.00,weatherlink.com 1.10,2013-03-01 05:36:00,
2013-03-01 00:51:00,30.4,29.0,30.02,SSW,208,1.0,3.0,94,0.00,,,0.00,weatherlink.com 1.10,2013-03-01 05:51:00,
2013-03-01 01:06:00,30.5,29.0,30.02,NNW,328,2.0,5.0,94,0.00,,,0.00,weatherlink.com 1.10,2013-03-01 06:06:00,
2013-03-01 01:21:00,30.6,29.0,30.02,SE,143,1.0,3.0,93,0.00,,,0.00,weatherlink.com 1.10,2013-03-01 06:21:00,
2013-03-01 01:36:00,30.6,29.0,30.02,South,172,2.0,4.0,94,0.00,,,0.00,weatherlink.com 1.10,2013-03-01 06:36:00,
2013-03-01 01:51:00,30.6,29.0,30.02,South,178,0.0,5.0,94,0.00,,,0.00,weatherlink.com 1.10,2013-03-01 06:51:00,
2013-03-01 02:06:00,30.5,29.0,30.01,SW,218,0.0,4.0,94,0.00,,,0.00,weatherlink.com 1.10,2013-03-01 07:06:00,
2013-03-01 02:21:00,30.5,29.0,30.01,SW,219,0.0,2.0,94,0.00,,,0.00,weatherlink.com 1.10,2013-03-01 07:21:00,
2013-03-01 02:36:00,30.4,29.0,30.00,SSE,156,1.0,3.0,95,0.00,,,0.00,weatherlink.com 1.10,2013-03-01 07:36:00,
2013-03-01 02:51:00,30.4,29.0,30.00,SSE,156,2.0,2.0,95,0.00,,,0.00,weatherlink.com 1.10,2013-03-01 07:51:00,
2013-03-01 03:06:00,30.4,29.0,30.00,WSW,250,1.0,3.0,95,0.00,,,0.00,weatherlink.com 1.10,2013-03-01 08:06:00,
2013-03-01 03:21:00,30.5,29.0,30.00,South,171,0.0,1.0,95,0.00,,,0.00,weatherlink.com 1.10,2013-03-01 08:21:00,
2013-03-01 03:36:00,30.5,29.0,30.00,SW,231,0.0,1.0,95,0.00,,,0.00,weatherlink.com 1.10,2013-03-01 08:36:00,
2013-03-01 03:51:00,30.4,29.0,29.99,SSW,205,0.0,2.0,95,0.00,,,0.00,weatherlink.com 1.10,2013-03-01 08:51:00,
2013-03-01 04:06:00,30.5,29.0,29.99,SSW,212,1.0,2.0,95,0.00,,,0.00,weatherlink.com 1.10,2013-03-01 09:06:00,
2013-03-01 04:21:00,30.6,29.0,29.99,SW,224,1.0,2.0,95,0.00,,,0.00,weatherlink.com 1.10,2013-03-01 09:21:00,
2013-03-01 04:36:00,30.6,29.0,29.99,WNW,300,0.0,3.0,95,0.00,,,0.00,weatherlink.com 1.10,2013-03-01 09:36:00,
2013-03-01 04:51:00,30.7,30.0,29.99,WSW,238,0.0,3.0,95,0.00,,,0.00,weatherlink.com 1.10,2013-03-01 09:51:00,
2013-03-01 05:06:00,30.8,30.0,30.00,WSW,256,0.0,2.0,95,0.00,,,0.00,weatherlink.com 1.10,2013-03-01 10:06:00,
2013-03-01 05:21:00,30.7,30.0,30.00,NNW,343,0.0,1.0,95,0.00,,,0.00,weatherlink.com 1.10,2013-03-01 10:21:00,
2013-03-01 05:36:00,30.7,30.0,30.00,SSW,195,1.0,1.0,95,0.00,,,0.00,weatherlink.com 1.10,2013-03-01 10:36:00,
2013-03-01 05:51:00,30.7,30.0,30.01,WSW,248,0.0,1.0,95,0.00,,,0.00,weatherlink.com 1.10,2013-03-01 10:51:00,
2013-03-01 06:06:00,30.7,30.0,30.02,WSW,257,0.0,3.0,95,0.00,,,0.00,weatherlink.com 1.10,2013-03-01 11:06:00,
2013-03-01 06:21:00,30.7,30.0,30.02,South,191,0.0,1.0,95,0.00,,,0.00,weatherlink.com 1.10,2013-03-01 11:21:00,
2013-03-01 06:36:00,30.8,30.0,30.01,East,86,0.0,1.0,95,0.00,,,0.00,weatherlink.com 1.10,2013-03-01 11:36:00,
2013-03-01 06:51:00,30.8,29.0,30.01,NNW,329,0.0,2.0,94,0.00,,,0.00,weatherlink.com 1.10,2013-03-01 11:51:00,
2013-03-01 07:06:00,30.9,29.0,30.01,NE,34,0.0,1.0,94,0.00,,,0.00,weatherlink.com 1.10,2013-03-01 12:06:00,
2013-03-01 07:22:00,30.8,29.0,30.01,South,172,0.0,1.0,94,0.00,,,0.00,weatherlink.com 1.10,2013-03-01 12:22:00,
2013-03-01 07:36:00,30.8,30.0,30.01,South,172,0.0,0.0,95,0.00,,,0.00,weatherlink.com 1.10,2013-03-01 12:36:00,
2013-03-01 07:51:00,30.9,30.0,30.02,SE,136,0.0,1.0,95,0.00,,,0.00,weatherlink.com 1.10,2013-03-01 12:51:00,
2013-03-01 08:07:00,31.0,30.0,30.03,SSE,160,0.0,1.0,95,0.00,,,0.00,weatherlink.com 1.10,2013-03-01 13:07:00,
2013-03-01 08:22:00,31.1,30.0,30.03,South,169,0.0,1.0,95,0.00,,,0.00,weatherlink.com 1.10,2013-03-01 13:22:00,
2013-03-01 08:37:00,31.3,30.0,30.03,SW,226,0.0,1.0,95,0.00,,,0.00,weatherlink.com 1.10,2013-03-01 13:37:00,
2013-03-01 08:52:00,31.5,30.0,30.04,SW,229,0.0,2.0,95,0.00,,,0.00,weatherlink.com 1.10,2013-03-01 13:52:00,
2013-03-01 09:07:00,31.6,30.0,30.03,West,260,0.0,1.0,95,0.00,,,0.00,weatherlink.com 1.10,2013-03-01 14:07:00,
2013-03-01 09:22:00,31.8,30.0,30.03,SSW,207,0.0,4.0,94,0.00,,,0.00,weatherlink.com 1.10,2013-03-01 14:22:00,
2013-03-01 09:52:00,32.4,31.0,30.03,North,5,1.0,2.0,93,0.00,,,0.00,weatherlink.com 1.10,2013-03-01 14:52:00,
2013-03-01 10:07:00,32.2,30.0,30.03,NNW,339,3.0,3.0,91,0.00,,,0.00,weatherlink.com 1.10,2013-03-01 15:07:00,
2013-03-01 10:22:00,32.3,30.0,30.03,West,269,0.0,3.0,92,0.00,,,0.00,weatherlink.com 1.10,2013-03-01 15:22:00,
2013-03-01 10:37:00,32.9,31.0,30.04,SW,219,0.0,1.0,92,0.00,,,0.00,weatherlink.com 1.10,2013-03-01 15:37:00,
2013-03-01 10:52:00,32.8,31.0,30.04,South,170,0.0,2.0,92,0.00,,,0.00,weatherlink.com 1.10,2013-03-01 15:52:00,
2013-03-01 11:07:00,33.1,31.0,30.04,WNW,300,0.0,1.0,92,0.00,,,0.00,weatherlink.com 1.10,2013-03-01 16:07:00,
2013-03-01 11:23:00,33.4,31.0,30.04,NW,306,0.0,4.0,90,0.00,,,0.00,weatherlink.com 1.10,2013-03-01 16:23:00,
2013-03-01 11:37:00,33.1,31.0,30.05,North,9,1.0,3.0,90,0.00,,,0.00,weatherlink.com 1.10,2013-03-01 16:37:00,
2013-03-01 11:52:00,32.0,30.0,30.05,WNW,298,0.0,4.0,92,0.00,,,0.00,weatherlink.com 1.10,2013-03-01 16:52:00,
2013-03-01 12:07:00,32.1,30.0,30.05,NE,37,0.0,3.0,93,0.00,,,0.00,weatherlink.com 1.10,2013-03-01 17:07:00,
2013-03-01 12:22:00,32.5,31.0,30.05,NE,45,1.0,2.0,92,0.00,,,0.00,weatherlink.com 1.10,2013-03-01 17:22:00,
2013-03-01 12:37:00,32.2,30.0,30.05,NNE,30,0.0,5.0,91,0.00,,,0.00,weatherlink.com 1.10,2013-03-01 17:37:00,
2013-03-01 12:52:00,32.4,30.0,30.04,WNW,291,0.0,3.0,91,0.00,,,0.00,weatherlink.com 1.10,2013-03-01 17:52:00,
2013-03-01 13:07:00,32.7,30.0,30.04,SE,127,0.0,3.0,91,0.00,,,0.00,weatherlink.com 1.10,2013-03-01 18:07:00,
2013-03-01 13:22:00,33.0,30.0,30.04,North,6,3.0,4.0,89,0.00,,,0.00,weatherlink.com 1.10,2013-03-01 18:22:00,
2013-03-01 13:37:00,33.4,30.0,30.03,NNW,335,2.0,7.0,87,0.00,,,0.00,weatherlink.com 1.10,2013-03-01 18:37:00,
2013-03-01 13:52:00,33.7,31.0,30.02,NE,44,4.0,5.0,88,0.00,,,0.00,weatherlink.com 1.10,2013-03-01 18:52:00,
2013-03-01 14:07:00,33.9,31.0,30.02,ENE,78,0.0,5.0,87,0.00,,,0.00,weatherlink.com 1.10,2013-03-01 19:07:00,
2013-03-01 14:22:00,34.5,30.0,30.01,NNW,346,1.0,2.0,84,0.00,,,0.00,weatherlink.com 1.10,2013-03-01 19:22:00,
2013-03-01 14:37:00,34.7,31.0,30.01,NW,308,0.0,3.0,86,0.00,,,0.00,weatherlink.com 1.10,2013-03-01 19:37:00,
2013-03-01 14:52:00,34.8,31.0,30.01,ENE,58,2.0,2.0,85,0.00,,,0.00,weatherlink.com 1.10,2013-03-01 19:52:00,
2013-03-01 15:07:00,34.6,31.0,30.01,NE,44,0.0,3.0,86,0.00,,,0.00,weatherlink.com 1.10,2013-03-01 20:07:00,
2013-03-01 15:22:00,35.2,32.0,30.01,ENE,68,1.0,1.0,87,0.00,,,0.00,weatherlink.com 1.10,2013-03-01 20:22:00,
2013-03-01 15:37:00,35.5,32.0,30.01,SW,222,1.0,5.0,87,0.00,,,0.00,weatherlink.com 1.10,2013-03-01 20:37:00,
2013-03-01 15:52:00,35.9,32.0,30.00,SSE,165,2.0,2.0,86,0.00,,,0.00,weatherlink.com 1.10,2013-03-01 20:52:00,
2013-03-01 16:07:00,35.4,31.0,30.01,NW,319,1.0,4.0,84,0.00,,,0.00,weatherlink.com 1.10,2013-03-01 21:07:00,
2013-03-01 16:22:00,34.1,31.0,30.01,NNE,24,2.0,7.0,87,0.00,,,0.00,weatherlink.com 1.10,2013-03-01 21:22:00,
2013-03-01 16:37:00,33.9,31.0,30.01,WNW,297,0.0,2.0,87,0.00,,,0.00,weatherlink.com 1.10,2013-03-01 21:37:00,
2013-03-01 16:52:00,34.1,31.0,30.01,NE,51,0.0,1.0,88,0.01,,,0.01,weatherlink.com 1.10,2013-03-01 21:52:00,
2013-03-01 17:07:00,34.2,31.0,30.01,WSW,257,0.0,1.0,87,0.01,,,0.01,weatherlink.com 1.10,2013-03-01 22:07:00,
2013-03-01 17:22:00,34.0,31.0,30.01,NE,53,3.0,3.0,87,0.01,,,0.01,weatherlink.com 1.10,2013-03-01 22:22:00,
2013-03-01 17:37:00,33.9,31.0,30.02,North,11,0.0,3.0,88,0.01,,,0.01,weatherlink.com 1.10,2013-03-01 22:37:00,
2013-03-01 17:52:00,33.8,31.0,30.02,North,11,0.0,1.0,90,0.00,,,0.01,weatherlink.com 1.10,2013-03-01 22:52:00,
2013-03-01 18:07:00,33.8,31.0,30.03,NNE,12,0.0,1.0,90,0.00,,,0.01,weatherlink.com 1.10,2013-03-01 23:07:00,
2013-03-01 18:23:00,33.6,31.0,30.03,North,11,0.0,1.0,90,0.00,,,0.01,weatherlink.com 1.10,2013-03-01 23:23:00,
2013-03-01 18:38:00,33.4,31.0,30.03,North,11,0.0,1.0,91,0.01,,,0.02,weatherlink.com 1.10,2013-03-01 23:38:00,
2013-03-01 18:53:00,33.3,31.0,30.03,SSE,156,0.0,1.0,91,0.01,,,0.02,weatherlink.com 1.10,2013-03-01 23:53:00,
2013-03-01 19:08:00,33.0,31.0,30.04,SSE,156,0.0,1.0,92,0.01,,,0.02,weatherlink.com 1.10,2013-03-02 00:08:00,
2013-03-01 19:23:00,32.9,31.0,30.04,SSE,162,0.0,1.0,93,0.01,,,0.02,weatherlink.com 1.10,2013-03-02 00:23:00,
2013-03-01 19:38:00,32.7,31.0,30.04,West,277,0.0,5.0,92,0.00,,,0.02,weatherlink.com 1.10,2013-03-02 00:38:00,
2013-03-01 19:53:00,32.4,30.0,30.04,NNE,22,0.0,4.0,92,0.00,,,0.02,weatherlink.com 1.10,2013-03-02 00:53:00,
2013-03-01 20:08:00,32.3,30.0,30.04,NW,313,0.0,3.0,92,0.00,,,0.02,weatherlink.com 1.10,2013-03-02 01:08:00,
2013-03-01 20:23:00,32.1,30.0,30.04,SSW,208,0.0,2.0,92,0.00,,,0.02,weatherlink.com 1.10,2013-03-02 01:23:00,
2013-03-01 20:38:00,32.1,30.0,30.04,ENE,58,3.0,5.0,91,0.00,,,0.02,weatherlink.com 1.10,2013-03-02 01:38:00,
2013-03-01 20:53:00,31.6,29.0,30.05,North,7,1.0,3.0,91,0.00,,,0.02,weatherlink.com 1.10,2013-03-02 01:53:00,
2013-03-01 21:08:00,31.2,29.0,30.04,NE,46,0.0,3.0,93,0.00,,,0.02,weatherlink.com 1.10,2013-03-02 02:08:00,
2013-03-01 21:23:00,31.3,29.0,30.05,SE,136,0.0,2.0,91,0.00,,,0.02,weatherlink.com 1.10,2013-03-02 02:23:00,
2013-03-01 21:38:00,31.4,30.0,30.05,SSE,152,0.0,0.0,93,0.00,,,0.02,weatherlink.com 1.10,2013-03-02 02:38:00,
2013-03-01 21:53:00,31.2,29.0,30.05,SSE,152,0.0,0.0,93,0.00,,,0.02,weatherlink.com 1.10,2013-03-02 02:53:00,
2013-03-01 22:08:00,31.2,29.0,30.05,SSE,153,0.0,0.0,93,0.00,,,0.02,weatherlink.com 1.10,2013-03-02 03:08:00,
2013-03-01 22:23:00,31.2,29.0,30.05,North,5,1.0,4.0,92,0.00,,,0.02,weatherlink.com 1.10,2013-03-02 03:23:00,
2013-03-01 22:53:00,31.1,29.0,30.05,NNW,339,0.0,1.0,92,0.00,,,0.02,weatherlink.com 1.10,2013-03-02 03:53:00,
2013-03-01 23:08:00,31.1,29.0,30.05,ENE,72,0.0,1.0,93,0.00,,,0.02,weatherlink.com 1.10,2013-03-02 04:08:00,
2013-03-01 23:23:00,31.2,29.0,30.04,North,350,0.0,0.0,93,0.00,,,0.02,weatherlink.com 1.10,2013-03-02 04:23:00,
2013-03-01 23:38:00,31.0,29.0,30.04,NNW,348,0.0,1.0,93,0.00,,,0.02,weatherlink.com 1.10,2013-03-02 04:38:00,
2013-03-01 23:53:00,31.0,29.0,30.04,North,6,0.0,2.0,92,0.00,,,0.02,weatherlink.com 1.10,2013-03-02 04:53:00,